Meten & meetapparatuur

Lees voor het posten de FAQ.

Als je iets zoekt op het forum kun je de zoekmachine raadplegen.

Onderwerp Replies Naam starter Datum
M971 meet geen 220volt? 10 jofel 28-05-2017 20:07:21
I2C scanner. 19 pascalbythree 26-05-2017 16:09:04
PM 6672 IEE488 documentatie 4 Camino1 26-05-2017 08:59:36
Multimeter oscilloscope aanschaffen 7 Reinhold 24-05-2017 22:48:45
overflow indicatie 3 Addepat 23-05-2017 20:41:02
K8047 vs. zelfbouw 7 Hoihoi 21-05-2017 21:45:57
Miselco Master 50K waarde 7 diebobo 19-05-2017 09:55:55
Budget multimeter Budget multimeter 1 2 laatste 42 tmdr 16-05-2017 20:01:07
vraag over aankoop multimeter , wederom :) 11 Kevve86 16-05-2017 10:35:49
kleine spanning meten, parameters opamp? kleine spanning meten, parameters opamp? 1 2 3 4 5 6 laatste 138 necessaryevil 11-05-2017 16:33:27
GW Oscilloscoop GOS-658G 7 douwebakker 09-05-2017 16:57:01
Multimeter zekeringen 15 Alienbliep 09-05-2017 08:38:37
OBD 2 en osciioscoop 13 ericc 07-05-2017 09:59:29
Batterijvoeding voor Hi-Z in buffer, met mooie LT regulators 22 miedema 04-05-2017 22:43:12
Stroom meten met ACS712 20 kluspet 02-05-2017 23:14:35
Gesloten Blowjob ;-) 6 Hubie 30-04-2017 11:27:33
PM2618X 8 andy53 28-04-2017 20:44:55
Moeder van alle voltagereference's 5 PH9Z 25-04-2017 16:23:21
Signaal output omrekenen mV en mV/V bij veranderen toevoer druksensor 12 Bierpokkel 24-04-2017 11:18:27
Metra Hit 22S pennen vervangen 7 Becky87 24-04-2017 00:11:27
Vreemd verloop BMP280 Temperatuur 2 Waters 21-04-2017 11:51:25
draadloze schakelaar omvormen tot standby killer draadloze schakelaar omvormen tot standby killer 1 2 laatste 26 Xen 21-04-2017 09:26:38
Wat meet je met Avvik en hoe sluit je zo'n meter aan? 7 RoelP 21-04-2017 07:02:36
Philips PM5167 /01 functiegenerator 12 Tidak Ada 20-04-2017 16:31:23
Status voltmeter 8 RoelP 19-04-2017 22:11:14
Accumaster C3 6 kevinonline 19-04-2017 10:00:54
frequentie berekenen van een periode 9 kevinonline 19-04-2017 03:46:39
40dB meetversterker V2 ontwikkeling 40dB meetversterker V2 ontwikkeling 1 2 3 laatste 59 blackdog 17-04-2017 23:00:16
Philips PM2454 2 MrS 17-04-2017 10:06:48
40dB Voorversterker 40dB Voorversterker 1 2 3 laatste 58 Kridri 16-04-2017 20:01:47
Frequentie regelaar Kimo Motormaster 1,5 kW 4 Toine Dekkers 16-04-2017 19:13:17
Potmeters ossilloscoop SS-5702 6 ericc 16-04-2017 18:07:56
Meten en registreren van waterdruk. 14 pamwikkeling 16-04-2017 17:29:40
Reparatie Hung Chang HC-5050DB 14 flash2b 16-04-2017 10:54:11
hp8616A 8 Ex-fietser 13-04-2017 18:56:25
watermeter wijzertje 14 Tuxracer 13-04-2017 12:03:51
Kleine draadjes, externe aansluiting 2 ABBOV 10-04-2017 18:56:00
Rigol DS2000A series 18 kevinonline 10-04-2017 09:19:29
LCR meter kopen 11 kevinonline 08-04-2017 13:52:22
Labvoeding 15V 2A 12 Luckyboy 03-04-2017 13:59:34
Reparatie philips pm3262 4 joro.ganev 27-03-2017 00:08:29
Philips PM3219 scoop defect in voeding 18 x-ray 24-03-2017 08:24:47
Reparatie en stiller maken Agilent 6612C voeding. 3 meetlint 22-03-2017 15:38:03
Wavetek 180 - geen output, kapot 12 fast4ever 21-03-2017 15:22:51
Reparatie Philips PM5171 Amplifier / Log Converter Reparatie Philips PM5171 Amplifier / Log Converter 1 2 3 laatste 62 flash2b 20-03-2017 16:41:31
Power Supply Current Limit View 5 bluerooo 20-03-2017 16:39:03
50 jaar oude Philips decadebank repareren of origineel laten? 50 jaar oude Philips decadebank repareren of origineel laten? 1 2 laatste 31 meetlint 19-03-2017 17:30:19
Agilent (/HP) 54624A probleem 0 JohanK 19-03-2017 15:26:36
schema manual SBC 550 0 kevinonline 13-03-2017 23:08:08
Probe bestellen 15 yannick90 10-03-2017 15:39:41